Regional Weather Roundup
Issued by NWS Midland/Odessa, TX

Home | Current Version | Previous Version | Text Only | Print | Product List | Glossary On
Versions: 1 2 3 4 5 6 7 8 9 10 11 12 13 14 15 16 17 18 19 20 21 22 23 24 25 26 27 28 29 30 31 32 33 34 35 36 37 38 39 40 41 42 43 44 45 46 47 48 49 50
000
ASUS44 KMAF 232310
RWRMAF
MIDLAND AREA WEATHER ROUNDUP
NATIONAL WEATHER SERVICE MIDLAND TX
600 PM CDT WED JUL 23 2014

...IN SOUTHWEST TEXAS AND SOUTHEAST NEW MEXICO...

CITY           SKY/WX    TMP DP  RH WIND       PRES   REMARKS
ALPINE         MOSUNNY   89  48  24 SE8G14    30.27F
ANDREWS        FAIR      97  53  22 E10G22    30.14F
ARTESIA        SUNNY     95  46  18 SE13G20   30.15F
BIG SPRING     MOSUNNY  100  50  19 NE16G25   30.11F
CARLSBAD       MOSUNNY   99  45  15 SE15G24   30.11F
DRYDEN           N/A    102  55  20 E10G20    30.04F HX 100
FORT STOCKTON  SUNNY     95  51  22 E16       30.12F
GUAD PASS      SUNNY     85  43  22 E23G35    30.30F
HOBBS          MOSUNNY   95  46  18 E14G20    30.18F
MARFA          MOSUNNY   88  48  25 E20       30.26F
MIDLAND AIRPK  MOSUNNY   98  53  22 SE5G17    30.10F
MIDLAND INTL   SUNNY     98  55  23 VRB7      30.10F
ODESSA         MOSUNNY   97  54  23 NE13      30.12F
PECOS          SUNNY     98  51  21 SE15G23   30.07F
PRESIDIO       FAIR      97  50  20 E5G22     30.03F
SEMINOLE       SUNNY     96  48  19 E6G12     30.16F
SNYDER         SUNNY     97  55  24 E9G20     30.10F
WINK           SUNNY    100  48  17 E14G23    30.07F
$$
...OTHER STATIONS IN TEXAS...

CITY           SKY/WX    TMP DP  RH WIND       PRES   REMARKS
ABILENE        SUNNY     96  63  33 E7        30.06F
AMARILLO       SUNNY     93  54  26 CALM      30.21F
AUSTIN         MOSUNNY   96  67  38 NE7       29.96F HX 100
BROWNSVILLE    MOSUNNY   92  70  48 E12       29.94F
CORPUS CHRISTI PTSUNNY   92  67  43 SE17      29.94F
DALLAS FTW     CLOUDY    94  68  42 CALM      30.01S
DEL RIO        SUNNY    100  62  28 SE8       29.96F HX 101
EL PASO        MOSUNNY   95  43  16 SE12G22   30.13F
HOUSTON INT    MOSUNNY   92  69  47 CALM      29.94F
LUBBOCK        MOSUNNY   94  59  31 NE10      30.18F
SAN ANGELO     SUNNY     96  60  30 E12       30.05F
SAN ANTONIO    MOSUNNY   96  69  41 CALM      29.96F HX 102
WACO           SUNNY     95  65  37 E9        30.00R
WICHITA FALLS  NOT AVBL
$$
...OTHER LOCATIONS IN NEW MEXICO...

CITY           SKY/WX    TMP DP  RH WIND       PRES   REMARKS
ALAMAGORDO     MOSUNNY   93  43  17 SE16      30.17F
ALBUQUERQUE    PTSUNNY   87  51  28 S7        30.29S
CANNON AFB     MOSUNNY   89  58  34 SE7       30.25F
CLOVIS         MOSUNNY   91  55  29 SE10      30.27
HOLLOMAN AFB   PTSUNNY   95  46  18 SE17G33   30.14F
ROSWELL        SUNNY     96  49  20 SE15      30.16F
RUIDOSO        SUNNY     81  45  28 MISG      30.44F
SANTA FE       CLOUDY    70  61  73 CALM      30.39F
TRUTH OR CONSE LGT RAIN  83  63  50 NW6       30.21F
TUCUMCARI      SUNNY     97  47  18 SE8G20    30.20F
$$



USA.gov is the U.S. government's official web portal to all federal, state and local government web resources and services.